Theta_e
312 312 313 316 317 317 315 314 313 313 312 311 311 311 312 312 313 313 315 316 318 320 317 316 317 319 319 319 320 319 313 315 330 337 337 336 335 338 336 334 335 335 332 334 336
311 312 313 313 316 317 315 314 313 313 312 312 312 312 313 313 313 314 316 317 320 318 316 317 319 320 320 319 319 316 314 322 331 333 334 336 338 337 335 336 335 334 333 334 336
311 312 312 313 314 317 317 314 314 314 314 314 314 313 313 314 322 322 318 320 318 316 316 317 319 321 320 319 320 317 322 329 335 337 336 339 339 339 336 336 335 335 334 334 335
312 312 312 312 313 315 317 317 317 319 321 321 321 319 317 319 327 326 324 323 319 316 317 318 320 320 317 318 320 321 332 338 337 338 340 337 340 338 337 337 336 334 335 335 335
312 312 312 312 313 313 315 317 318 319 319 319 320 320 321 323 327 324 323 323 319 316 317 318 320 320 318 318 318 323 336 338 338 337 338 337 335 335 337 336 336 335 335 336 336
312 312 312 313 313 313 314 316 317 318 319 319 319 319 321 324 325 321 318 317 316 316 318 320 320 320 319 318 318 334 338 338 337 336 335 333 334 336 338 336 335 335 336 335 337
313 313 313 313 313 313 314 316 318 318 319 320 320 320 324 329 325 321 317 316 317 319 319 320 320 320 320 319 330 337 336 336 336 335 335 334 333 336 337 337 336 336 336 337 336
313 313 313 313 314 314 319 321 322 322 318 318 319 319 323 329 329 326 319 318 319 319 320 320 321 320 320 321 331 331 325 338 336 336 335 336 333 336 336 337 337 339 342 345 345
312 313 313 314 314 315 320 321 319 320 323 318 319 319 321 329 326 324 321 319 320 320 320 321 321 319 318 313 313 315 318 320 338 335 334 335 337 335 337 337 339 344 347 348 347
312 312 313 314 314 316 320 319 320 322 320 319 323 319 321 326 325 323 321 322 321 321 321 321 320 313 309 312 317 318 318 319 332 331 333 336 336 336 338 340 340 345 347 347 347
312 312 313 313 314 315 319 319 319 319 319 319 319 319 319 322 324 325 323 323 322 321 318 318 315 314 314 314 316 317 318 318 316 320 334 337 336 338 339 341 343 344 346 346 346
312 312 313 313 313 315 318 318 316 317 316 319 318 318 319 319 321 324 323 322 322 320 318 316 316 315 315 315 316 317 317 316 316 323 329 332 337 339 335 341 343 344 345 346 346
310 310 312 313 313 316 316 318 318 319 317 319 319 318 320 321 321 324 323 322 320 319 319 317 318 319 319 318 319 317 319 317 319 323 324 335 336 341 339 342 343 344 344 345 345
307 307 308 312 313 313 316 317 318 320 317 321 322 321 319 320 321 323 323 322 319 319 317 317 318 319 319 318 316 318 317 319 323 323 323 327 337 325 338 341 341 342 343 344 345
306 306 308 308 309 311 313 317 318 320 323 327 323 322 321 321 321 322 323 322 319 320 319 319 319 319 320 319 318 318 317 319 322 320 321 321 320 318 327 334 339 339 342 343 344
306 307 308 308 309 311 313 317 320 319 320 327 321 320 320 321 321 322 322 322 321 319 319 318 320 320 320 321 319 320 320 316 315 315 319 319 318 317 317 327 337 336 341 343 343
308 308 308 309 310 310 311 317 315 316 320 324 322 322 318 319 320 320 320 319 318 319 319 318 320 320 321 322 320 317 317 318 319 317 321 317 318 319 321 322 321 330 338 342 342
308 309 310 311 310 310 312 315 317 318 323 323 321 321 319 319 319 321 319 318 318 318 317 318 320 322 323 322 320 320 317 317 320 318 317 317 321 322 326 327 333 329 332 341 340
308 310 311 311 311 310 318 313 313 316 320 320 318 321 320 320 321 321 318 318 318 316 318 318 319 321 322 322 320 320 319 316 316 317 320 319 324 326 326 332 337 338 339 339 339
307 310 311 315 310 312 314 312 315 318 317 317 317 320 320 320 321 321 320 319 319 317 317 319 320 321 324 322 321 319 317 321 316 323 324 320 323 324 327 330 336 336 337 337 336
306 309 315 317 311 319 314 314 317 318 318 319 319 319 319 320 319 320 321 323 323 323 317 317 318 320 324 323 321 321 319 315 316 318 322 323 322 320 325 324 332 334 337 338 338
304 305 316 311 313 313 313 315 319 319 318 318 318 318 319 319 319 319 321 322 323 324 324 319 316 319 322 321 321 320 321 317 319 320 318 318 318 318 322 323 327 334 337 337 338
303 305 308 310 313 313 315 318 319 319 319 319 319 319 319 319 319 319 320 322 323 324 324 321 318 318 319 319 320 324 321 317 316 315 320 321 320 320 323 324 326 326 333 336 338
303 307 312 316 313 315 317 317 319 319 318 319 318 318 318 318 315 318 321 323 324 324 324 322 317 318 320 319 320 323 323 321 320 322 321 320 321 322 321 323 324 328 327 330 334
303 305 310 309 312 311 314 316 318 318 319 318 318 319 319 319 318 319 320 322 323 324 323 317 320 322 321 320 324 325 325 323 324 322 324 322 321 321 321 320 323 325 326 327 330
304 311 312 312 312 311 315 317 319 320 319 320 318 318 317 318 318 320 320 320 321 323 323 319 322 323 324 324 324 325 323 323 321 321 321 321 320 318 323 323 323 324 324 326 328
306 310 312 310 312 312 312 317 316 315 315 316 315 314 317 319 322 323 324 323 323 323 320 321 321 321 322 324 324 325 324 323 323 321 321 321 319 319 319 321 324 325 325 326 328
Wind_Speed
23 23 22 23 24 22 17 14 13 12 11 9 8 6 4 4 6 8 8 4 6 2 1 2 2 1 6 2 5 5 4 2 7 9 5 5 5 7 8 19 11 5 23 32 29
22 22 22 22 23 23 21 16 13 12 10 9 8 6 4 4 6 9 3 6 5 4 2 4 3 3 3 1 4 4 4 8 8 11 9 19 16 16 11 10 3 22 27 30 30
21 22 22 22 21 21 21 17 14 12 11 10 8 6 5 5 4 2 5 4 5 4 3 1 3 3 1 3 4 4 4 5 8 20 36 20 14 14 15 4 17 30 32 32 31
22 22 21 21 20 19 19 17 13 12 11 11 10 9 6 3 2 2 0 6 5 5 3 1 2 2 1 1 7 4 1 10 8 18 17 11 14 7 11 7 23 33 30 32 34
22 22 21 21 20 18 17 15 13 11 10 10 10 9 6 5 2 3 2 7 7 5 4 2 4 3 1 4 2 4 3 11 14 13 14 12 7 4 3 14 27 33 29 32 34
22 22 21 21 20 18 16 14 13 11 10 9 9 11 9 4 2 4 2 6 6 5 3 3 6 10 5 4 1 8 14 9 8 3 2 8 1 2 15 24 32 29 30 29 31
23 22 21 20 20 18 15 13 13 12 10 9 11 13 11 5 2 2 2 4 6 4 3 6 9 7 6 1 5 19 7 7 3 1 1 9 4 5 19 21 30 23 25 23 23
23 23 22 20 20 18 13 15 14 11 9 9 11 13 8 5 7 4 1 7 4 2 4 6 9 8 0 4 7 6 5 5 4 2 2 2 9 8 22 26 24 18 22 22 19
23 23 21 20 19 15 15 13 16 8 5 9 10 7 9 6 6 5 5 4 1 1 2 7 6 1 2 6 5 6 5 2 2 7 1 4 6 9 24 29 19 24 29 28 26
24 23 22 20 18 13 15 10 11 4 3 10 5 5 7 2 12 9 6 6 8 6 4 0 2 3 4 5 5 5 3 4 8 10 7 6 10 5 16 24 24 28 32 30 29
26 25 23 20 17 11 15 7 14 4 19 17 19 23 27 14 12 7 10 9 8 3 3 4 5 4 6 3 3 1 2 3 5 9 11 20 6 13 17 18 20 24 30 30 29
25 25 24 20 16 7 9 11 13 13 17 28 29 27 26 23 8 11 7 6 4 3 2 6 4 9 5 4 4 3 2 7 9 6 7 10 17 10 15 23 34 32 31 34 30
27 26 24 20 14 3 5 10 15 18 7 19 7 16 23 12 14 17 9 10 3 2 2 5 6 4 2 4 3 3 2 4 7 5 4 9 5 4 7 12 19 23 32 37 38
25 25 24 21 8 13 2 9 13 13 4 6 4 5 14 12 6 17 16 11 1 7 6 5 4 3 5 7 8 4 7 6 4 3 4 2 4 5 11 14 14 25 30 38 38
24 24 22 20 19 14 12 10 11 3 4 1 2 1 11 15 2 6 19 17 6 5 5 7 5 6 5 8 7 11 7 8 3 3 4 1 3 6 6 11 17 22 36 39 42
23 22 23 21 18 10 10 9 4 5 5 5 4 4 5 6 2 3 9 15 9 4 2 6 5 4 8 5 7 5 5 7 5 3 2 4 5 5 6 16 24 27 36 43 41
23 22 22 24 17 15 9 7 4 3 5 4 3 2 4 6 3 6 4 5 6 3 3 5 4 5 6 2 3 6 7 2 3 3 5 4 3 8 6 9 9 20 37 46 42
25 23 23 20 17 11 4 4 3 3 5 3 4 6 7 3 5 5 4 4 3 3 3 2 7 3 1 4 6 0 7 6 6 4 5 4 5 5 6 12 8 16 32 31 37
26 24 21 16 9 9 9 2 7 6 3 5 7 4 4 5 1 0 5 7 8 8 8 5 6 4 3 4 8 5 3 4 7 4 3 3 4 7 6 6 11 13 24 28 36
25 24 10 8 9 15 4 5 5 4 3 4 1 1 3 3 2 3 2 4 6 10 7 7 2 4 4 1 5 7 8 3 3 4 3 4 4 5 5 4 4 10 22 27 29
19 11 12 3 16 10 4 7 4 8 3 1 2 3 5 4 6 4 5 4 3 5 8 4 3 8 2 3 6 1 2 6 5 4 6 2 6 7 9 9 11 15 28 35 38
8 3 6 4 2 2 4 6 4 2 3 4 3 8 5 2 4 6 7 4 2 2 2 4 5 6 8 5 3 7 6 6 5 3 0 3 6 6 9 10 18 24 29 33 37
7 8 9 4 3 3 5 3 4 2 3 3 4 4 3 3 3 6 5 5 3 2 2 4 1 1 8 6 5 3 5 5 5 4 7 5 7 3 3 6 22 24 29 34 38
5 3 4 4 3 2 3 5 5 7 6 8 6 7 5 5 8 5 5 2 1 0 1 3 4 6 8 8 3 3 5 5 6 4 5 6 6 6 7 8 16 27 28 32 37
2 3 2 4 1 3 2 3 1 2 4 3 4 3 3 4 5 4 5 2 2 2 4 5 4 5 5 6 3 4 2 4 5 5 6 7 9 9 9 10 23 26 29 29 32
3 4 6 7 10 5 2 3 4 3 3 4 5 7 6 6 8 5 3 4 4 1 3 1 3 1 3 4 5 5 6 9 7 5 5 7 9 11 23 18 18 22 24 28 32
4 5 4 6 5 2 3 3 4 5 7 9 5 5 5 7 9 7 6 4 4 4 2 3 5 3 5 4 6 7 7 9 6 5 6 8 9 6 8 12 23 24 24 29 36
Wind_Direction
16 16 15 13 12 10 4 358 355 353 350 350 353 351 337 289 270 261 253 204 193 204 152 134 134 314 315 261 206 214 68 167 180 155 166 149 150 190 184 165 188 166 161 153 152
10 11 10 11 9 9 7 3 3 3 4 4 8 354 354 318 286 272 195 181 195 224 151 110 132 297 284 224 192 136 123 213 186 163 166 168 184 160 151 174 178 115 144 154 160
5 6 6 5 6 4 6 6 9 14 16 15 10 353 8 338 329 60 163 165 177 181 167 89 359 340 204 208 218 181 199 178 200 168 165 168 177 176 163 188 173 147 156 167 171
1 2 1 0 2 359 359 3 4 9 10 10 2 355 346 328 159 130 107 209 199 188 182 138 342 310 173 189 219 179 40 139 164 163 161 164 152 121 183 200 174 163 164 176 180
357 357 358 356 357 354 350 350 351 351 358 2 360 350 337 311 268 348 296 186 193 197 183 278 346 7 9 280 270 102 68 122 155 166 155 145 87 84 121 143 164 160 171 185 189
353 353 354 353 353 351 346 336 336 336 335 345 350 341 325 304 302 15 120 172 175 169 148 342 341 338 246 275 36 129 104 81 153 150 134 130 59 50 160 152 164 167 181 190 198
349 351 351 350 350 349 346 334 327 323 315 325 332 334 312 308 264 331 108 147 141 141 302 341 341 334 309 340 88 108 87 51 336 125 252 130 335 250 172 166 170 179 188 192 201
344 348 348 349 348 350 354 343 335 314 309 312 319 324 281 274 263 267 147 152 131 55 353 359 344 308 232 106 67 75 62 120 240 305 252 21 241 219 181 179 174 174 170 163 168
340 343 345 349 346 350 355 342 350 319 321 331 307 310 281 265 280 283 220 184 343 225 328 322 308 14 71 90 44 351 159 182 16 208 269 184 238 230 184 187 174 172 164 155 151
336 338 340 346 345 346 355 355 352 41 6 333 309 312 261 259 322 299 213 255 276 300 302 232 31 38 46 69 180 175 140 160 176 212 229 212 263 258 194 189 184 172 171 169 166
332 334 334 341 344 344 5 3 17 331 314 282 268 279 282 287 302 272 238 243 256 223 173 29 67 230 243 151 130 120 140 282 249 200 164 218 238 222 184 190 183 177 174 180 179
329 330 329 337 338 339 1 42 16 321 297 295 280 268 263 270 295 240 276 197 152 179 108 19 262 233 226 187 179 151 11 296 287 144 152 175 228 229 186 199 191 183 184 188 186
327 329 326 333 333 321 333 1 343 337 274 306 255 234 239 231 234 254 264 208 163 147 149 161 232 76 185 297 341 328 229 256 220 147 68 119 339 198 231 212 206 202 201 196 197
324 326 326 330 329 330 307 315 323 325 25 276 248 243 201 209 271 238 237 200 193 208 170 229 266 211 213 233 147 243 209 213 243 121 183 148 231 244 216 215 204 205 208 200 200
321 322 322 325 318 321 304 318 323 314 339 284 217 240 168 163 252 214 209 204 185 206 111 244 296 338 305 235 140 228 172 189 159 121 109 276 102 254 140 228 223 209 211 212 209
317 318 315 314 311 314 312 309 325 45 255 316 160 182 130 216 257 88 197 209 234 179 210 236 255 202 224 251 177 132 98 52 49 84 59 236 133 283 185 213 227 211 210 213 211
312 313 310 302 302 302 306 317 40 161 316 344 1 334 209 203 235 181 175 185 186 133 307 333 265 277 216 107 39 81 68 352 341 9 203 159 78 235 266 234 210 223 210 206 200
315 312 305 297 297 278 251 50 197 244 254 328 309 273 182 185 245 192 163 221 241 110 120 164 322 208 226 148 193 190 147 153 199 207 243 206 227 252 255 308 333 248 217 190 188
319 317 312 307 260 213 173 116 212 211 304 359 335 56 31 7 123 260 211 213 199 169 176 160 272 288 202 203 147 181 157 179 102 16 74 262 289 332 329 347 76 121 172 182 188
326 327 328 336 187 171 103 227 235 237 30 18 256 20 9 311 6 28 231 260 239 193 164 218 274 207 270 107 65 162 154 78 16 139 230 290 273 238 252 220 157 153 174 183 188
327 330 332 225 159 170 176 224 267 264 358 318 242 303 231 244 192 209 216 283 51 9 171 144 121 277 49 182 184 312 100 52 113 127 165 212 262 220 216 199 193 197 189 194 202
319 329 162 35 310 224 180 194 213 263 5 278 249 214 235 264 276 222 206 221 318 43 214 215 164 226 203 302 239 167 164 133 118 237 174 175 261 215 230 214 206 202 203 207 208
310 271 243 198 206 259 282 253 221 220 166 261 290 232 248 251 269 216 219 242 83 84 199 180 275 271 330 353 343 208 173 119 116 95 189 169 261 343 245 245 226 217 212 211 211
309 327 298 211 226 197 254 259 236 268 242 234 243 258 307 263 204 255 216 255 43 244 68 98 145 169 208 216 175 199 185 144 129 129 191 218 270 285 261 246 250 241 233 218 215
261 270 329 302 8 351 292 302 258 285 247 270 318 256 260 278 321 233 231 256 273 202 95 118 218 182 238 242 198 204 241 154 182 199 168 233 205 243 249 244 250 256 256 228 215
292 333 334 291 304 311 225 251 238 270 214 239 215 320 297 223 209 254 254 190 200 83 120 38 249 210 279 279 243 237 206 229 213 188 230 229 244 230 251 271 271 261 244 229 222
234 273 302 285 322 9 245 337 333 345 267 258 0 299 288 248 229 252 241 220 171 143 148 135 135 104 260 283 320 312 205 213 216 192 184 227 239 248 261 248 245 248 225 224 224